Location: Dumpton Point
(51.3500°N, 1.4433°E)
Time: 20:47:01
(UTC+00:00)

ISS - Pass Details

Date: 08 December 2021
Orbit: 413 x 422 km, 51.6° (Epoch: 20 January)

Event Time Altitude Azimuth Distance (km) Brightness Sun altitude
Rises 16:49:26 0° 283° (WNW) 2,389 1.0 -9.3°
Reaches altitude 10° 16:51:48 10° 270° (W) 1,518 0.3 -9.6°
Maximum altitude 16:54:36 24° 214° (SW) 923 -1.2 -10.0°
Drops below altitude 10° 16:57:24 10° 158° (SSE) 1,506 -0.9 -10.4°
Enters shadow 17:02:57 -10° 137° (SE) 3,643 0.8 -11.2°
